Flag Weather past 2 weeks in Resistencia, Chaco, Argentina

Now
86 °F

Broken clouds.


Feels Like: 88 °F
Forecast: N/A
Wind: 3 mph from East

Location: Resistencia Aero.

Current Time: Nov 20, 2014 at 6:31:35 PM

Latest Report: Nov 20, 2014 at 6:00 PM


Visibility: N/A

Pressure: 29.77 "Hg

Humidity: 52%

Dew point: 66 °F

Location of ResistenciaLocation

Historic Weather in Resistencia — Graph

°F

Resistencia temperature yesterday

Maximum temperature yesterday: 88 °F (at 3:00 PM)
Minimum temperature yesterday: 72 °F (at 11:00 AM)
Average temperature yesterday: 79 °F

Past Weeks' High & Low Weather Summary

 TemperatureHumidityPressure
High93 °F (Nov 6, 3:00 PM)100% (Nov 7, 8:00 AM)30.07 "Hg (Nov 7, 8:00 AM)
Low55 °F (Nov 14, 5:00 AM)19% (Nov 17, 2:00 PM)29.59 "Hg (Nov 19, 5:00 AM)
Average76 °F66%29.86 "Hg
* Reported Nov 5 5:00 PM — Nov 20 5:00 PM, Resistencia, Weather by CustomWeather, © 2014

Note: Actual official high and low records may vary slightly from our data, if they occured in-between our weather recording intervals... More about our weather records

Advertising

Resistencia weather history for previous 24 hours

 ConditionsComfort  
Time TempWeatherWind HumidityBarometerVisibility
5:00 PM
Nov 20
86 °FBroken clouds.3 mph55%29.77 "HgN/A
4:00 PM86 °FBroken clouds.3 mph52%29.80 "HgN/A
3:00 PM86 °FBroken clouds.No wind55%29.77 "HgN/A
2:00 PM82 °FMore clouds than sun.3 mph62%29.83 "HgN/A
1:00 PM82 °FMore clouds than sun.5 mph70%29.86 "HgN/A
12:00 PM79 °FCloudy.6 mph79%29.86 "Hg5 mi
11:00 AM77 °FMostly cloudy.5 mph83%29.86 "Hg5 mi
10:00 AM75 °FMostly cloudy.7 mph83%29.86 "Hg5 mi
9:00 AM73 °FOvercast.12 mph94%29.83 "Hg5 mi
8:00 AM72 °FSunny.3 mph94%29.86 "Hg10 mi
7:00 AM70 °FSunny.8 mph94%29.89 "Hg10 mi
6:00 AM68 °FSunny.5 mph94%29.86 "Hg10 mi
5:00 AM66 °FSunny.6 mph100%29.83 "Hg10 mi
4:00 AM70 °FClear.2 mph94%29.77 "Hg10 mi
3:00 AM70 °FClear.No wind94%29.80 "Hg10 mi
2:00 AM70 °FClear.1 mph94%29.80 "Hg10 mi
1:00 AM72 °FClear.2 mph94%29.80 "Hg10 mi
12:00 AM73 °FClear.3 mph89%29.77 "Hg10 mi
11:00 PM
Nov 19
75 °FClear.6 mph78%29.74 "Hg4 mi
10:00 PM75 °FClear.6 mph83%29.74 "Hg4 mi
9:00 PM75 °FClear.6 mph78%29.74 "Hg4 mi
8:00 PM79 °FClear.2 mph74%29.74 "Hg10 mi
7:00 PM81 °FClear.7 mph70%29.71 "Hg10 mi
6:00 PM86 °FScattered clouds.3 mph49%29.71 "HgN/A
Weather by CustomWeather, © 2014

See weather overviewHow to use our weather pages